DW5164 Weather Reports


time (UTC)temp
F
wind
direction
speed
knots
gust
knots
rain 1hr
in
rain 24hr
in
rain mn
in
humidity
%
barometer
mb
20260905182437 81 34 0.9 2.6 0.00 0.00 0.00 73 1014.5
20260905181937 81 34 1.7 2.6 0.00 0.00 0.00 72 1014.5
20260905181437 81 34 1.7 2.6 0.00 0.00 0.00 71 1014.4
20260905180954 82 34 0.9 1.7 0.00 0.00 0.00 70 1014.4
20260905180437 82 34 0.9 0.9 0.00 0.00 0.00 70 1014.3
20260905175436 83 34 0.0 0.0 0.00 0.00 0.00 69 1014.2
20260905174936 83 34 0.0 0.9 0.00 0.00 0.00 68 1014.2
20260905174440 83 34 0.0 1.7 0.00 0.00 0.00 67 1014.2
20260905173940 84 34 0.9 1.7 0.00 0.00 0.00 68 1014.1
20260905173436 84 34 0.0 0.0 0.00 0.00 0.00 67 1014.0
20260905172937 85 33 0.0 0.0 0.00 0.00 0.00 67 1014.0
20260905171937 86 33 0.0 0.9 0.00 0.00 0.00 64 1013.9
20260905171438 87 33 0.0 0.9 0.00 0.00 0.00 64 1013.9
20260905170939 87 302 0.9 1.7 0.00 0.00 0.00 62 1013.9
20260905165936 90 302 0.0 1.7 0.00 0.00 0.00 54 1013.9
20260905164937 91 286 1.7 2.6 0.00 0.00 0.00 52 1013.8
20260905164452 91 283 3.5 5.2 0.00 0.00 0.00 51 1013.8
20260905163937 91 298 1.7 2.6 0.00 0.00 0.00 51 1013.8
20260905162937 92 293 1.7 4.3 0.00 0.00 0.00 50 1013.8
20260905162437 92 292 2.6 5.2 0.00 0.00 0.00 50 1013.7
20260905161936 92 310 2.6 5.2 0.00 0.00 0.00 50 1013.7
20260905160437 92 307 2.6 6.1 0.00 0.00 0.00 50 1013.6
20260905155436 92 304 5.2 7.8 0.00 0.00 0.00 49 1013.6
20260905154436 93 304 3.5 6.1 0.00 0.00 0.00 48 1013.6
20260905153436 93 278 4.3 7.0 0.00 0.00 0.00 49 1013.6
20260905152937 93 276 1.7 5.2 0.00 0.00 0.00 51 1013.6
20260905152437 93 253 4.3 6.1 0.00 0.00 0.00 50 1013.6
20260905151436 93 275 6.1 8.7 0.00 0.00 0.00 49 1013.6
20260905150937 93 257 3.5 10.4 0.00 0.00 0.00 49 1013.6
20260905145936 93 297 4.3 7.0 0.00 0.00 0.00 49 1013.7
20260905145454 93 267 5.2 8.7 0.00 0.00 0.00 50 1013.6
20260905144936 93 271 4.3 7.8 0.00 0.00 0.00 49 1013.6
20260905144439 93 292 4.3 10.4 0.00 0.00 0.00 51 1013.6
20260905143944 93 298 2.6 6.1 0.00 0.00 0.00 51 1013.7
20260905143439 92 252 5.2 7.8 0.00 0.00 0.00 51 1013.7
20260905142936 93 255 7.0 10.4 0.00 0.00 0.00 51 1013.7
20260905142436 93 284 5.2 7.8 0.00 0.00 0.00 49 1013.8
20260905141936 92 296 4.3 8.7 0.00 0.00 0.00 51 1013.9
20260905141436 92 286 7.0 10.4 0.00 0.00 0.00 50 1014.0
20260905140936 93 304 6.1 8.7 0.00 0.00 0.00 51 1013.9
20260905140448 92 241 2.6 5.2 0.00 0.00 0.00 52 1014.0
20260905135436 92 273 5.2 8.7 0.00 0.00 0.00 52 1014.1
20260905134439 93 267 4.3 7.0 0.00 0.00 0.00 51 1014.1
20260905133936 92 294 4.3 8.7 0.00 0.00 0.00 51 1014.2
20260905132937 92 295 5.2 10.4 0.00 0.00 0.00 51 1014.3
20260905132436 91 242 2.6 6.1 0.00 0.00 0.00 55 1014.4
20260905131436 91 226 4.3 6.1 0.00 0.00 0.00 54 1014.4
20260905130936 91 256 5.2 7.8 0.00 0.00 0.00 53 1014.5
20260905125438 91 239 2.6 6.1 0.00 0.00 0.00 56 1014.6
20260905124436 91 270 2.6 6.1 0.00 0.00 0.00 57 1014.9
20260905123951 90 327 3.5 7.8 0.00 0.00 0.00 57 1014.9
20260905122935 90 293 3.5 6.1 0.00 0.00 0.00 57 1015.0
20260905122436 90 265 4.3 7.8 0.00 0.00 0.00 57 1015.0
20260905121435 90 247 3.5 6.1 0.00 0.00 0.00 59 1015.1
20260905120936 89 287 4.3 8.7 0.00 0.00 0.00 59 1015.0
20260905115437 89 287 5.2 8.7 0.00 0.00 0.00 57 1015.2
20260905114935 89 290 6.1 10.4 0.00 0.00 0.00 56 1015.3
20260905113937 89 272 5.2 7.0 0.00 0.00 0.00 56 1015.3
20260905113436 89 237 5.2 10.4 0.00 0.00 0.00 56 1015.4
20260905112437 89 282 5.2 7.8 0.00 0.00 0.00 57 1015.4
20260905111939 88 287 4.3 8.7 0.00 0.00 0.00 57 1015.4
20260905111441 88 264 7.0 8.7 0.00 0.00 0.00 55 1015.3
20260905110947 88 252 5.2 10.4 0.00 0.00 0.00 57 1015.4
20260905110436 87 283 4.3 7.0 0.00 0.00 0.00 56 1015.4
20260905105935 88 257 6.1 10.4 0.00 0.00 0.00 56 1015.4
20260905105439 88 227 5.2 7.8 0.00 0.00 0.00 57 1015.4
20260905104936 88 239 5.2 11.3 0.00 0.00 0.00 58 1015.5
20260905104435 87 252 6.1 10.4 0.00 0.00 0.00 57 1015.4
20260905103937 87 265 5.2 10.4 0.00 0.00 0.00 57 1015.5
20260905101435 86 296 8.7 12.2 0.00 0.00 0.00 57 1015.7
20260905100936 87 281 7.8 10.4 0.00 0.00 0.00 58 1015.7
20260905095935 86 280 5.2 10.4 0.00 0.00 0.00 59 1015.6
20260905095435 86 284 5.2 10.4 0.00 0.00 0.00 60 1015.7
20260905094936 85 291 5.2 10.4 0.00 0.00 0.00 61 1015.8
20260905094436 85 298 4.3 8.7 0.00 0.00 0.00 60 1015.7
20260905093435 85 265 7.0 10.4 0.00 0.00 0.00 57 1015.7
20260905092935 85 301 5.2 7.8 0.00 0.00 0.00 59 1015.7
20260905092435 86 271 5.2 11.3 0.00 0.00 0.00 59 1015.7
20260905091436 84 305 4.3 10.4 0.00 0.00 0.00 61 1015.8
20260905090935 84 300 5.2 8.7 0.00 0.00 0.00 61 1015.8
20260905090435 83 298 6.1 10.4 0.00 0.00 0.00 63 1015.8
20260905085436 84 318 5.2 10.4 0.00 0.00 0.00 62 1015.9
20260905084935 84 313 5.2 10.4 0.00 0.00 0.00 63 1015.8
20260905083942 83 283 4.3 7.8 0.00 0.00 0.00 64 1015.5
20260905083437 83 288 5.2 10.4 0.00 0.00 0.00 64 1015.5
20260905082935 82 290 5.2 7.0 0.00 0.00 0.00 66 1015.5
20260905082438 82 293 3.5 8.7 0.00 0.00 0.00 65 1015.5
20260905081935 82 290 5.2 8.7 0.00 0.00 0.00 65 1015.6
20260905080935 82 308 7.0 10.4 0.00 0.00 0.00 72 1015.6
20260905074938 81 318 2.6 5.2 0.00 0.00 0.00 73 1015.5
20260905073435 79 287 1.7 2.6 0.00 0.00 0.00 74 1015.4
20260905072935 79 303 1.7 4.3 0.00 0.00 0.00 75 1015.4
20260905072435 78 304 2.6 4.3 0.00 0.00 0.00 75 1015.4
20260905070936 77 295 1.7 2.6 0.00 0.00 0.00 76 1015.4
20260905070436 76 287 1.7 2.6 0.00 0.00 0.00 78 1015.3
20260905065934 76 280 0.9 2.6 0.00 0.00 0.00 79 1015.3
20260905065435 75 300 1.7 4.3 0.00 0.00 0.00 79 1015.4
20260905064935 75 298 2.6 2.6 0.00 0.00 0.00 80 1015.4
20260905064435 74 313 2.6 2.6 0.00 0.00 0.00 80 1015.4
20260905063936 74 297 2.6 2.6 0.00 0.00 0.00 81 1015.3
20260905063436 74 298 0.9 2.6 0.00 0.00 0.00 81 1015.3
20260905062934 73 30 0.0 0.0 0.00 0.00 0.00 83 1015.2
20260905062435 73 71 0.0 0.0 0.00 0.00 0.00 83 1015.1
20260905061935 74 71 0.0 0.0 0.00 0.00 0.00 82 1015.1
20260905060935 73 71 0.0 0.0 0.00 0.00 0.00 83 1014.9
20260905060435 72 71 0.0 0.0 0.00 0.00 0.00 84 1015.0
20260905055934 72 71 0.0 0.0 0.00 0.00 0.00 84 1014.9
20260905055435 71 344 0.0 0.0 0.00 0.00 0.00 86 1014.9
20260905054938 71 344 0.0 0.0 0.00 0.00 0.00 87 1014.9
20260905054443 70 344 0.0 0.0 0.00 0.00 0.00 88 1014.8
20260905053935 70 338 0.0 0.0 0.00 0.00 0.00 89 1014.8
20260905052950 68 327 0.0 0.0 0.00 0.00 0.00 90 1014.7
20260905052435 68 319 0.0 0.0 0.00 0.00 0.00 91 1014.8
20260905051934 67 319 0.0 0.0 0.00 0.00 0.00 91 1014.7
20260905051435 67 319 0.0 0.0 0.00 0.00 0.00 92 1014.8
20260905050934 67 38 0.0 0.0 0.00 0.00 0.00 91 1014.6
20260905045942 67 17 0.9 2.6 0.00 0.00 0.00 92 1014.4
20260905044435 67 295 1.7 2.6 0.00 0.00 0.00 91 1014.4
20260905043437 67 319 0.9 2.6 0.00 0.00 0.00 91 1014.2
20260905042934 67 329 0.0 0.0 0.00 0.00 0.00 91 1014.2
20260905041434 68 329 0.0 0.0 0.00 0.00 0.00 90 1014.2
20260905040935 68 329 0.0 0.0 0.00 0.00 0.00 90 1014.2
20260905040434 68 329 0.0 0.0 0.00 0.00 0.00 90 1014.3
20260905035934 69 329 0.0 1.7 0.00 0.00 0.00 90 1014.3
20260905035434 69 327 0.9 2.6 0.00 0.00 0.00 90 1014.3
20260905034934 69 326 0.0 1.7 0.00 0.00 0.00 90 1014.2
20260905034435 69 326 1.7 2.6 0.00 0.00 0.00 90 1014.2
20260905033934 69 330 1.7 2.6 0.00 0.00 0.00 90 1014.3
20260905033434 69 338 0.9 2.6 0.00 0.00 0.00 90 1014.2
20260905032434 69 342 1.7 2.6 0.00 0.00 0.00 90 1014.4
20260905031935 69 337 1.7 2.6 0.00 0.00 0.00 89 1014.4
20260905031435 69 331 1.7 2.6 0.00 0.00 0.00 90 1014.4
20260905030934 69 340 0.9 2.6 0.00 0.00 0.00 90 1014.4
20260905025935 69 282 0.0 1.7 0.00 0.00 0.00 89 1014.3
20260905024934 69 267 0.9 1.7 0.00 0.00 0.00 89 1014.4
20260905024435 69 215 0.0 1.7 0.00 0.00 0.00 89 1014.3
20260905023434 69 215 0.9 2.6 0.00 0.00 0.00 89 1014.3
20260905022934 69 11 1.7 1.7 0.00 0.00 0.00 89 1014.4
20260905022435 69 11 0.0 0.0 0.00 0.00 0.00 89 1014.3
20260905021935 69 11 0.0 0.0 0.00 0.00 0.00 90 1014.3
20260905021434 69 11 0.9 0.9 0.00 0.00 0.00 89 1014.2
20260905020935 69 11 0.0 0.9 0.00 0.00 0.00 89 1014.3
20260905020434 69 11 0.0 0.0 0.00 0.00 0.00 89 1014.3
20260905015434 70 11 0.0 0.0 0.00 0.00 0.00 88 1014.3
20260905013934 70 26 0.0 0.0 0.00 0.00 0.00 87 1014.3
20260905013434 70 26 0.9 1.7 0.00 0.00 0.00 87 1014.3
20260905012934 71 26 0.9 1.7 0.00 0.00 0.00 86 1014.4
20260905012435 71 26 0.0 1.7 0.00 0.00 0.00 86 1014.4
20260905011434 71 26 1.7 2.6 0.00 0.00 0.00 85 1014.3
20260905010934 71 26 0.9 2.6 0.00 0.00 0.00 86 1014.3
20260905010434 71 26 0.9 2.6 0.00 0.00 0.00 86 1014.3
20260905005935 71 23 0.9 2.6 0.00 0.00 0.00 86 1014.4
20260905004934 71 54 0.9 1.7 0.00 0.00 0.00 86 1014.4
20260905004435 71 54 0.0 0.0 0.00 0.00 0.00 86 1014.6
20260905003933 71 54 0.0 0.0 0.00 0.00 0.00 86 1014.6
20260905003434 71 54 0.0 1.7 0.00 0.00 0.00 86 1014.6
20260905002448 71 54 0.0 0.0 0.00 0.00 0.00 86 1014.6
20260905001934 71 54 0.0 0.0 0.00 0.00 0.00 85 1014.7
20260905001434 71 54 0.0 0.0 0.00 0.00 0.00 85 1014.7
20260905000934 72 54 0.0 0.0 0.00 0.00 0.00 84 1014.7
20260905000434 72 54 0.0 0.0 0.00 0.00 0.00 84 1014.7
20260904235937 72 54 0.0 0.0 0.00 0.00 0.00 83 1014.7
20260904234934 72 54 1.7 2.6 0.00 0.00 0.00 83 1014.8
20260904234436 73 54 0.0 0.9 0.00 0.00 0.00 83 1014.8
20260904233950 73 54 0.9 2.6 0.00 0.00 0.00 83 1014.8
20260904232933 73 54 0.0 1.7 0.00 0.00 0.00 82 1014.9
20260904232434 73 54 0.9 1.7 0.00 0.00 0.00 82 1014.9
20260904231935 73 60 0.9 1.7 0.00 0.00 0.00 81 1014.9
20260904231436 73 60 0.0 0.0 0.00 0.00 0.00 81 1014.9
20260904230934 73 60 0.9 2.6 0.00 0.00 0.00 81 1014.9
20260904230433 74 50 0.9 2.6 0.00 0.00 0.00 80 1014.9
20260904225937 74 50 0.9 2.6 0.00 0.00 0.00 80 1015.0
20260904225433 74 50 0.0 1.7 0.00 0.00 0.00 79 1015.0
20260904224935 74 50 0.9 2.6 0.00 0.00 0.00 79 1014.9
20260904224433 74 50 1.7 2.6 0.00 0.00 0.00 79 1014.9
20260904223934 74 50 0.9 2.6 0.00 0.00 0.00 80 1015.0
20260904222934 74 41 1.7 2.6 0.00 0.00 0.00 80 1015.0
20260904222433 75 36 0.9 2.6 0.00 0.00 0.00 80 1015.0
20260904221933 75 36 0.9 2.6 0.00 0.00 0.00 80 1015.0
20260904220433 75 36 0.9 2.6 0.00 0.00 0.00 81 1014.9
20260904215934 75 36 1.7 2.6 0.00 0.00 0.00 80 1015.0
20260904215435 76 36 0.0 0.9 0.00 0.00 0.00 79 1014.9
20260904214949 76 36 1.7 4.3 0.00 0.00 0.00 79 1015.0
20260904214434 76 35 1.7 2.6 0.00 0.00 0.00 77 1014.9
20260904213933 76 31 0.9 1.7 0.00 0.00 0.00 78 1014.9
20260904211433 76 123 0.0 0.0 0.00 0.00 0.00 78 1014.8
20260904210933 76 123 0.0 0.0 0.00 0.00 0.00 79 1014.9
20260904210433 76 122 0.0 0.0 0.00 0.00 0.00 78 1014.9
20260904205433 77 122 0.0 0.9 0.00 0.00 0.00 77 1015.0
20260904203932 77 122 0.9 1.7 0.00 0.00 0.00 77 1015.1
20260904203433 77 122 1.7 2.6 0.00 0.00 0.00 76 1015.1
20260904202949 77 122 1.7 2.6 0.00 0.00 0.00 76 1015.1
20260904202433 77 122 0.9 1.7 0.00 0.00 0.00 76 1015.2
20260904201933 77 106 0.9 2.6 0.00 0.00 0.00 76 1015.2
20260904201433 78 123 1.7 2.6 0.00 0.00 0.00 75 1015.2
20260904200433 79 121 0.0 1.7 0.00 0.00 0.00 74 1015.2
20260904195433 79 121 0.0 0.0 0.00 0.00 0.00 75 1015.2
20260904194436 79 121 0.0 0.0 0.00 0.00 0.00 75 1015.2
20260904193933 79 121 0.0 0.0 0.00 0.00 0.00 75 1015.2
20260904193434 79 121 0.0 0.0 0.00 0.00 0.00 74 1015.2
20260904192932 80 120 0.0 0.0 0.00 0.00 0.00 74 1015.2
20260904192433 80 120 0.0 0.0 0.00 0.00 0.00 73 1015.2
20260904191438 80 120 0.0 0.0 0.00 0.00 0.00 72 1015.1
20260904190433 80 120 0.0 0.0 0.00 0.00 0.00 71 1015.1
20260904185940 80 120 0.0 0.0 0.00 0.00 0.00 70 1015.1
20260904185434 80 120 0.0 0.0 0.00 0.00 0.00 71 1015.0
20260904184932 81 120 0.0 0.0 0.00 0.00 0.00 71 1015.0
20260904183933 81 120 0.0 0.0 0.00 0.00 0.00 71 1015.0
20260904183436 82 120 0.0 0.0 0.00 0.00 0.00 71 1015.0
20260904182932 82 120 0.0 0.0 0.00 0.00 0.00 71 1014.9